"startDT [UTC]","vpos","CH4 [ppm]","stdev(CH4) [ppm]","CO2 [ppm]","stdev(CO2) [ppm]","H2O [ppm]","stdev(H2O)","p_LGR [torr]","T_LGR [C]","mt1_LGR [us]","mt2_LGR [us]","T_ECpre [C]","T_EC1 [C]","T_EC2 [C]","p_inlet [hPa]","p_in [hPa]","p_out [hPa]","T_inlet [C]","RH_inlet [%]","dwpt_inlet [C]","T_vent [C]","RH_vent [%]","dwpt_vent [C]","flow_vent [l min-1]","flow_inlet [l min-1]","dwpt_sample [C]","T_room [C]"
2013-04-04 00:00:00,0.0,1.9146,0.0008,406.55,0.33,-1.0,0.0,138.15,26.41,24.62,36.31,0.04,-272.76,-272.76,-38,548,-930,20.0,2.5,-28.3,20.0,2.6,-28.0,5.73,2.39,-32.2,25.6
2013-04-04 00:01:00,0.0,1.9143,0.0011,406.56,0.25,-1.0,0.0,138.15,26.41,24.63,36.31,0.04,-272.76,-272.77,-38,548,-930,20.0,2.5,-28.3,20.0,2.6,-27.9,5.73,2.41,-32.2,25.6
2013-04-04 00:02:00,0.0,1.9145,0.0008,406.62,0.25,-1.0,0.0,138.15,26.42,24.62,36.31,0.04,-272.76,-272.76,-38,548,-930,20.0,2.5,-28.4,20.0,2.6,-28.0,5.73,2.44,-32.2,25.6
2013-04-04 00:03:00,0.0,1.9149,0.0009,406.57,0.30,-1.0,0.0,138.15,26.42,24.62,36.31,0.04,-272.76,-272.76,-37,548,-930,20.0,2.5,-28.6,20.0,2.6,-28.2,5.73,2.45,-32.2,25.6
2013-04-04 00:04:00,0.0,1.9143,0.0008,406.52,0.31,-1.0,0.0,138.15,26.42,24.63,36.32,0.04,-272.76,-272.76,-37,548,-930,20.0,2.4,-28.7,20.1,2.5,-28.3,5.73,2.45,-32.1,25.6
2013-04-04 00:05:00,0.0,1.9158,0.0011,406.63,0.24,-1.0,0.0,138.15,26.42,24.62,36.32,0.04,-272.76,-272.76,-38,548,-930,20.0,2.4,-28.9,20.1,2.5,-28.5,5.73,2.44,-32.1,25.6
2013-04-04 00:06:00,0.0,1.9146,0.0007,406.56,0.29,-1.0,0.0,138.15,26.42,24.62,36.32,0.04,-272.76,-272.76,-38,548,-930,20.0,2.4,-28.9,20.1,2.5,-28.4,5.73,2.43,-32.1,25.6
2013-04-04 00:07:00,0.0,1.9155,0.0009,406.62,0.27,-1.0,0.0,138.15,26.42,24.62,36.31,0.04,-272.76,-272.76,-38,549,-930,20.1,2.4,-28.8,20.1,2.5,-28.4,5.73,2.40,-32.0,25.6
2013-04-04 00:08:00,0.0,1.9151,0.0009,406.64,0.29,-1.0,0.0,138.15,26.42,24.62,36.31,0.04,-272.76,-272.77,-38,549,-930,20.1,2.5,-28.6,20.1,2.5,-28.2,5.73,2.38,-32.0,25.6
2013-04-04 00:09:00,0.0,1.9151,0.0009,406.57,0.25,-1.0,0.0,138.15,26.42,24.62,36.31,0.04,-272.76,-272.76,-38,549,-930,20.1,2.5,-28.4,20.1,2.6,-28.0,5.73,2.39,-32.0,25.6
2013-04-04 00:10:00,0.0,1.9148,0.0011,406.56,0.26,-1.0,0.0,138.15,26.42,24.62,36.31,0.04,-272.76,-272.76,-38,549,-930,20.1,2.5,-28.2,20.1,2.6,-27.9,5.73,2.41,-32.0,25.6
2013-04-04 00:11:00,0.0,1.9148,0.0010,406.63,0.31,-1.0,0.0,138.15,26.42,24.62,36.31,0.04,-272.76,-272.76,-38,549,-930,20.1,2.6,-28.2,20.1,2.6,-27.8,5.73,2.43,-31.9,25.6
2013-04-04 00:12:00,0.0,1.9148,0.0010,406.46,0.26,-1.0,0.0,138.15,26.42,24.62,36.32,0.04,-272.76,-272.76,-38,549,-930,20.1,2.5,-28.2,20.1,2.6,-27.9,5.73,2.44,-31.9,25.6
2013-04-04 00:13:00,0.0,1.9150,0.0008,406.59,0.27,-1.0,0.0,138.15,26.43,24.62,36.32,0.04,-272.76,-272.76,-38,549,-930,20.1,2.5,-28.5,20.1,2.6,-28.1,5.73,2.45,-31.8,25.6
2013-04-04 00:14:00,0.0,1.9149,0.0009,406.51,0.30,-1.0,0.0,138.15,26.43,24.62,36.32,0.04,-272.76,-272.76,-38,549,-930,20.1,2.4,-28.8,20.1,2.5,-28.4,5.73,2.44,-31.8,25.6
2013-04-04 00:15:00,0.0,1.9155,0.0009,406.61,0.28,-1.0,0.0,138.15,26.43,24.62,36.31,0.04,-272.76,-272.76,-38,549,-930,20.1,2.3,-29.1,20.1,2.4,-28.7,5.73,2.43,-31.8,25.6
2013-04-04 00:16:00,0.0,1.9151,0.0007,406.57,0.28,-1.0,0.0,138.15,26.43,24.62,36.32,0.04,-272.76,-272.76,-38,549,-930,20.1,2.3,-29.2,20.1,2.4,-29.0,5.73,2.41,-31.8,25.6
2013-04-04 00:17:00,0.0,1.9152,0.0008,406.52,0.31,-1.0,0.0,138.15,26.43,24.62,36.32,0.04,-272.76,-272.76,-38,549,-930,20.1,2.3,-29.1,20.1,2.4,-28.8,5.73,2.40,-31.7,25.6
2013-04-04 00:18:00,0.0,1.9149,0.0009,406.57,0.30,-1.0,0.0,138.15,26.44,24.62,36.32,0.04,-272.76,-272.76,-38,549,-930,20.1,2.4,-29.0,20.1,2.4,-28.7,5.73,2.40,-31.7,25.6
2013-04-04 00:19:00,0.0,1.9147,0.0009,406.56,0.31,-1.0,0.0,138.14,26.44,24.62,36.31,0.04,-272.76,-272.76,-38,549,-930,20.2,2.4,-28.9,20.2,2.5,-28.5,5.73,2.40,-31.7,25.7
2013-04-04 00:20:00,0.0,1.9148,0.0008,406.58,0.29,-1.0,0.0,138.14,26.44,24.62,36.32,0.04,-272.76,-272.76,-38,549,-930,20.2,2.4,-28.6,20.2,2.5,-28.3,5.73,2.41,-31.7,25.7
2013-04-04 00:21:00,0.0,1.9145,0.0008,406.59,0.30,-1.0,0.0,138.14,26.44,24.63,36.31,0.04,-272.76,-272.76,-38,549,-930,20.1,2.5,-28.4,20.2,2.6,-28.1,5.73,2.43,-31.6,25.7
2013-04-04 00:22:00,0.0,1.9145,0.0010,406.57,0.29,-1.0,0.0,138.15,26.44,24.62,36.32,0.04,-272.76,-272.76,-37,549,-930,20.2,2.5,-28.2,20.2,2.6,-27.9,5.73,2.44,-31.6,25.7
2013-04-04 00:23:00,0.0,1.9152,0.0008,406.55,0.29,-1.0,0.0,138.15,26.44,24.62,36.31,0.04,-272.76,-272.76,-38,549,-930,20.2,2.6,-28.0,20.2,2.7,-27.6,5.73,2.45,-31.6,25.7
2013-04-04 00:24:00,0.0,1.9147,0.0008,406.62,0.34,-1.0,0.0,138.15,26.44,24.62,36.31,0.04,-272.76,-272.76,-38,549,-931,20.2,2.6,-27.8,20.2,2.7,-27.4,5.73,2.45,-31.5,25.7
2013-04-04 00:25:00,0.0,1.9149,0.0010,406.54,0.24,-1.0,0.0,138.14,26.44,24.62,36.32,0.04,-272.76,-272.76,-38,549,-930,20.2,2.7,-27.6,20.2,2.8,-27.2,5.73,2.44,-31.5,25.7
2013-04-04 00:26:00,0.0,1.9145,0.0009,406.52,0.26,-1.0,0.0,138.14,26.45,24.62,36.32,0.04,-272.76,-272.76,-38,549,-931,20.2,2.7,-27.4,20.2,2.8,-27.1,5.73,2.42,-31.5,25.7
2013-04-04 00:27:00,0.0,1.9146,0.0008,406.58,0.26,-1.0,0.0,138.14,26.45,24.63,36.31,0.04,-272.76,-272.76,-38,549,-931,20.2,2.8,-27.3,20.3,2.8,-26.9,5.73,2.41,-31.4,25.7
2013-04-04 00:28:00,0.0,1.9146,0.0009,406.51,0.24,-1.0,0.0,138.14,26.45,24.62,36.32,0.04,-272.77,-272.76,-38,549,-930,20.2,2.8,-27.1,20.2,2.9,-26.8,5.73,2.40,-31.4,25.7
2013-04-04 00:29:00,0.0,1.9144,0.0009,406.51,0.29,-1.0,0.0,138.14,26.45,24.63,36.32,0.04,-272.76,-272.76,-38,549,-931,20.2,2.8,-27.1,20.2,2.9,-26.7,5.73,2.40,-31.4,25.7
2013-04-04 00:30:00,0.0,1.9149,0.0009,406.50,0.26,-1.0,0.0,138.14,26.46,24.62,36.32,0.04,-272.76,-272.76,-38,549,-930,20.2,2.8,-27.1,20.3,2.9,-26.7,5.73,2.39,-31.4,25.7
2013-04-04 00:31:00,0.0,1.9143,0.0008,406.49,0.29,-1.0,0.0,138.14,26.46,24.63,36.32,0.04,-272.76,-272.76,-38,550,-930,20.2,2.8,-27.1,20.2,2.9,-26.7,5.73,2.41,-31.3,25.8
2013-04-04 00:32:00,0.0,1.9150,0.0010,406.48,0.29,-1.0,0.0,138.14,26.46,24.62,36.32,0.04,-272.76,-272.76,-38,550,-931,20.3,2.8,-27.1,20.3,2.9,-26.7,5.73,2.42,-31.3,25.8
2013-04-04 00:33:00,0.0,1.9146,0.0008,406.49,0.27,-1.0,0.0,138.14,26.46,24.62,36.32,0.04,-272.76,-272.76,-38,550,-931,20.3,2.8,-27.1,20.3,2.9,-26.8,5.73,2.44,-31.3,25.8
2013-04-04 00:34:00,0.0,1.9147,0.0009,406.48,0.29,-1.0,0.0,138.14,26.47,24.62,36.32,0.04,-272.76,-272.76,-38,550,-931,20.3,2.8,-27.1,20.3,2.9,-26.7,5.73,2.45,-31.2,25.8
2013-04-04 00:35:00,0.0,1.9147,0.0009,406.49,0.30,-1.0,0.0,138.14,26.47,24.62,36.32,0.04,-272.76,-272.77,-38,550,-931,20.3,2.8,-27.1,20.3,2.9,-26.7,5.73,2.44,-31.2,25.8
2013-04-04 00:36:00,0.0,1.9145,0.0008,406.47,0.29,-1.0,0.0,138.14,26.47,24.62,36.32,0.04,-272.76,-272.76,-38,550,-931,20.3,2.8,-27.0,20.3,2.9,-26.7,5.73,2.44,-31.2,25.8
2013-04-04 00:37:00,0.0,1.9147,0.0010,406.47,0.28,-1.0,0.4,138.14,26.47,24.62,36.32,0.04,-272.76,-272.76,-38,550,-931,20.3,2.8,-27.0,20.3,2.9,-26.6,5.73,2.43,-31.2,25.8
2013-04-04 00:38:00,0.0,1.9142,0.0009,406.47,0.25,-1.0,0.0,138.14,26.47,24.62,36.32,0.04,-272.76,-272.76,-38,550,-931,20.3,2.8,-26.9,20.3,2.9,-26.5,5.73,2.42,-31.1,25.8
2013-04-04 00:39:00,0.0,1.9146,0.0008,406.43,0.33,-1.0,0.0,138.14,26.47,24.62,36.32,0.04,-272.76,-272.76,-38,550,-931,20.3,2.9,-26.8,20.3,3.0,-26.4,5.73,2.41,-31.1,25.8
2013-04-04 00:40:00,0.0,1.9146,0.0008,406.53,0.30,-0.7,2.1,138.14,26.48,24.62,36.32,0.04,-272.76,-272.76,-38,550,-931,20.3,2.9,-26.7,20.3,3.0,-26.4,5.73,2.40,-31.1,25.8
2013-04-04 00:41:00,0.0,1.9146,0.0008,406.50,0.23,-1.0,0.0,138.14,26.48,24.62,36.32,0.04,-272.76,-272.76,-38,550,-931,20.3,2.9,-26.7,20.4,3.0,-26.3,5.73,2.39,-31.1,25.8
2013-04-04 00:42:00,0.0,1.9142,0.0010,406.57,0.25,-1.0,0.0,138.14,26.48,24.62,36.32,0.04,-272.76,-272.76,-38,550,-931,20.3,2.9,-26.6,20.4,3.0,-26.3,5.73,2.40,-31.0,25.8
2013-04-04 00:43:00,0.0,1.9143,0.0009,406.52,0.27,-1.0,0.0,138.14,26.49,24.63,36.32,0.04,-272.76,-272.76,-38,550,-931,20.4,2.9,-26.5,20.4,3.0,-26.1,5.73,2.41,-31.0,25.8
2013-04-04 00:44:00,0.0,1.9143,0.0009,406.54,0.38,-1.0,0.0,138.14,26.49,24.62,36.32,0.04,-272.76,-272.76,-38,550,-931,20.4,3.0,-26.4,20.4,3.1,-26.0,5.73,2.42,-30.9,25.8
2013-04-04 00:45:00,0.0,1.9144,0.0009,406.51,0.30,-1.0,0.0,138.14,26.49,24.62,36.32,0.04,-272.76,-272.77,-38,550,-931,20.4,3.0,-26.3,20.4,3.1,-25.9,5.73,2.43,-31.0,25.9
2013-04-04 00:46:00,0.0,1.9147,0.0009,406.44,0.22,-1.0,0.0,138.14,26.50,24.62,36.32,0.04,-272.76,-272.76,-38,550,-931,20.4,3.0,-26.2,20.4,3.1,-25.9,5.73,2.43,-30.9,25.9
2013-04-04 00:47:00,0.0,1.9143,0.0009,406.53,0.27,-1.0,0.0,138.14,26.50,24.63,36.32,0.04,-272.76,-272.76,-38,550,-931,20.4,3.0,-26.1,20.4,3.1,-25.8,5.73,2.44,-30.9,25.9
2013-04-04 00:48:00,0.0,1.9148,0.0008,406.41,0.29,-1.0,0.0,138.14,26.51,24.62,36.32,0.04,-272.76,-272.77,-38,550,-931,20.4,3.0,-26.1,20.4,3.1,-25.8,5.73,2.45,-30.9,25.9
2013-04-04 00:49:00,0.0,1.9147,0.0007,406.45,0.35,-0.8,1.2,138.14,26.51,24.62,36.33,0.04,-272.76,-272.77,-38,550,-931,20.4,3.0,-26.1,20.4,3.1,-25.7,5.73,2.44,-30.8,25.9
2013-04-04 00:50:00,0.0,1.9143,0.0010,406.58,0.29,-1.0,0.0,138.14,26.51,24.62,36.32,0.04,-272.76,-272.76,-38,550,-931,20.4,3.1,-26.0,20.4,3.2,-25.6,5.73,2.43,-30.8,25.9
2013-04-04 00:51:00,0.0,1.9144,0.0009,406.53,0.25,-0.9,0.8,138.14,26.52,24.62,36.32,0.04,-272.76,-272.76,-38,551,-931,20.4,3.1,-25.8,20.4,3.2,-25.5,5.73,2.42,-30.8,25.9
2013-04-04 00:52:00,0.0,1.9140,0.0009,406.57,0.27,-1.0,0.0,138.14,26.52,24.63,36.32,0.04,-272.76,-272.76,-38,551,-931,20.4,3.1,-25.8,20.5,3.2,-25.4,5.73,2.42,-30.7,25.9
2013-04-04 00:53:00,0.0,1.9139,0.0008,406.58,0.28,-0.8,1.1,138.14,26.52,24.63,36.32,0.04,-272.76,-272.76,-38,551,-931,20.4,3.1,-25.7,20.4,3.2,-25.4,5.73,2.41,-30.7,25.9
2013-04-04 00:54:00,0.0,1.9144,0.0008,406.50,0.29,-0.9,0.6,138.14,26.53,24.62,36.32,0.04,-272.76,-272.76,-38,551,-931,20.4,3.1,-25.7,20.5,3.2,-25.4,5.73,2.41,-30.7,25.9
2013-04-04 00:55:00,0.0,1.9144,0.0010,406.47,0.29,-1.0,0.0,138.14,26.53,24.62,36.32,0.04,-272.76,-272.76,-38,551,-931,20.4,3.1,-25.8,20.4,3.2,-25.5,5.73,2.40,-30.6,25.9
2013-04-04 00:56:00,0.0,1.9142,0.0008,406.52,0.27,-1.0,0.0,138.14,26.53,24.62,36.32,0.04,-272.76,-272.76,-38,551,-931,20.4,3.0,-26.1,20.5,3.1,-25.7,5.73,2.40,-30.6,25.9
2013-04-04 00:57:00,0.0,1.9139,0.0008,406.50,0.27,-1.0,0.0,138.14,26.54,24.63,36.32,0.04,-272.76,-272.76,-38,551,-931,20.5,3.0,-26.3,20.5,3.1,-25.9,5.73,2.40,-30.5,25.9
2013-04-04 00:58:00,0.0,1.9142,0.0007,406.48,0.28,-0.2,4.3,138.14,26.54,24.62,36.33,0.04,-272.76,-272.76,-38,551,-931,20.5,3.0,-26.4,20.5,3.1,-26.0,5.73,2.41,-30.5,26.0
2013-04-04 00:59:00,0.0,1.9143,0.0011,406.43,0.33,-0.8,1.4,138.14,26.55,24.63,36.33,0.04,-272.76,-272.76,-38,551,-931,20.5,3.0,-26.2,20.5,3.1,-25.9,5.73,2.42,-30.5,26.0
2013-04-04 01:00:00,0.0,1.9138,0.0009,406.42,0.29,-0.5,2.7,138.14,26.55,24.63,36.33,0.04,-272.76,-272.76,-38,551,-931,20.5,3.0,-26.2,20.5,3.1,-25.8,5.73,2.42,-30.5,26.0
2013-04-04 01:01:00,0.0,1.9141,0.0010,406.48,0.27,-0.5,3.8,138.14,26.55,24.62,36.33,0.04,-272.76,-272.76,-38,551,-931,20.5,3.0,-26.1,20.6,3.1,-25.7,5.73,2.43,-30.4,26.0
2013-04-04 01:02:00,0.0,1.9138,0.0008,406.44,0.27,-1.0,0.0,138.14,26.55,24.63,36.33,0.04,-272.76,-272.76,-38,551,-931,20.5,3.0,-26.0,20.5,3.1,-25.7,5.73,2.43,-30.4,26.0
2013-04-04 01:03:00,0.0,1.9141,0.0011,406.56,0.26,-0.8,1.3,138.14,26.56,24.62,36.32,0.04,-272.76,-272.76,-38,551,-931,20.5,3.1,-25.8,20.6,3.2,-25.5,5.73,2.44,-30.4,26.0
2013-04-04 01:04:00,0.0,1.9142,0.0008,406.42,0.24,0.0,6.1,138.14,26.56,24.63,36.32,0.04,-272.76,-272.76,-38,551,-931,20.6,3.1,-25.7,20.6,3.2,-25.4,5.73,2.44,-30.4,26.0
2013-04-04 01:05:00,0.0,1.9140,0.0008,406.41,0.28,-0.7,2.0,138.14,26.56,24.63,36.33,0.04,-272.76,-272.76,-38,551,-931,20.6,3.1,-25.6,20.6,3.2,-25.3,5.73,2.43,-30.3,26.0
2013-04-04 01:06:00,0.0,1.9142,0.0009,406.42,0.28,-0.2,4.8,138.14,26.57,24.63,36.33,0.04,-272.76,-272.76,-38,551,-931,20.6,3.2,-25.5,20.6,3.3,-25.2,5.73,2.43,-30.3,26.0
2013-04-04 01:07:00,0.0,1.9142,0.0009,406.38,0.27,-1.0,0.0,138.14,26.57,24.63,36.33,0.04,-272.76,-272.76,-38,551,-931,20.6,3.2,-25.3,20.6,3.3,-25.0,5.73,2.43,-30.3,26.0
2013-04-04 01:08:00,0.0,1.9144,0.0008,406.49,0.28,-0.4,3.5,138.14,26.58,24.62,36.32,0.04,-272.76,-272.76,-38,551,-931,20.6,3.3,-25.2,20.6,3.4,-24.9,5.73,2.42,-30.2,26.0
2013-04-04 01:09:00,0.0,1.9144,0.0009,406.45,0.27,-0.7,2.0,138.14,26.58,24.62,36.33,0.04,-272.76,-272.76,-38,551,-931,20.6,3.3,-25.1,20.6,3.4,-24.8,5.73,2.42,-30.2,26.1
2013-04-04 01:10:00,0.0,1.9146,0.0010,406.53,0.27,0.1,5.3,138.14,26.59,24.62,36.32,0.04,-272.76,-272.76,-38,551,-931,20.6,3.3,-25.0,20.7,3.4,-24.7,5.73,2.41,-30.1,26.1
2013-04-04 01:11:00,0.0,1.9142,0.0009,406.44,0.25,-0.8,1.3,138.14,26.59,24.63,36.32,0.04,-272.76,-272.76,-38,551,-931,20.6,3.3,-24.9,20.7,3.4,-24.6,5.73,2.41,-30.1,26.1
2013-04-04 01:12:00,0.0,1.9141,0.0008,406.49,0.31,-0.1,5.1,138.14,26.60,24.63,36.32,0.04,-272.76,-272.76,-38,552,-931,20.6,3.4,-24.9,20.6,3.4,-24.6,5.73,2.41,-30.1,26.1
2013-04-04 01:13:00,0.0,1.9144,0.0010,406.59,0.25,-1.0,0.0,138.14,26.60,24.63,36.32,0.04,-272.76,-272.76,-38,552,-931,20.7,3.4,-24.8,20.6,3.5,-24.4,5.73,2.41,-30.1,26.1
2013-04-04 01:14:00,0.0,1.9145,0.0009,406.50,0.28,-0.3,4.1,138.14,26.61,24.62,36.32,0.04,-272.76,-272.76,-38,552,-931,20.7,3.4,-24.7,20.7,3.5,-24.4,5.73,2.41,-30.0,26.1
2013-04-04 01:15:00,0.0,1.9141,0.0008,406.38,0.28,-0.4,2.7,138.14,26.62,24.63,36.33,0.04,-272.76,-272.76,-38,552,-931,20.7,3.4,-24.6,20.7,3.5,-24.4,5.73,2.41,-30.0,26.1
2013-04-04 01:16:00,0.0,1.9146,0.0010,406.40,0.28,-0.4,3.1,138.13,26.62,24.62,36.33,0.04,-272.76,-272.76,-38,552,-931,20.7,3.4,-24.6,20.7,3.5,-24.3,5.73,2.41,-30.0,26.1
2013-04-04 01:17:00,0.0,1.9143,0.0009,406.45,0.32,1.0,8.0,138.13,26.63,24.63,36.32,0.04,-272.76,-272.76,-38,552,-931,20.7,3.4,-24.5,20.7,3.5,-24.2,5.73,2.41,-29.9,26.1
2013-04-04 01:18:00,0.0,1.9145,0.0008,406.50,0.31,0.1,3.5,138.13,26.63,24.62,36.32,0.04,-272.76,-272.76,-38,552,-931,20.7,3.4,-24.5,20.7,3.5,-24.2,5.73,2.41,-29.9,26.1
2013-04-04 01:19:00,0.0,1.9140,0.0009,406.47,0.28,0.4,5.8,138.14,26.64,24.63,36.33,0.04,-272.76,-272.76,-38,552,-931,20.7,3.4,-24.5,20.7,3.6,-24.1,5.73,2.41,-29.9,26.2
2013-04-04 01:20:00,0.0,1.9141,0.0009,406.50,0.24,1.1,7.1,138.14,26.64,24.63,36.32,0.04,-272.76,-272.76,-38,552,-932,20.7,3.4,-24.5,20.7,3.5,-24.2,5.73,2.42,-29.8,26.2
2013-04-04 01:21:00,0.0,1.9146,0.0009,406.44,0.26,2.3,13.2,138.13,26.65,24.63,36.33,0.04,-272.76,-272.76,-38,552,-931,20.7,3.4,-24.7,20.7,3.5,-24.4,5.73,2.42,-29.8,26.2
2013-04-04 01:22:00,0.0,1.9146,0.0010,406.46,0.28,2.5,10.2,138.13,26.66,24.63,36.32,0.04,-272.76,-272.77,-38,552,-932,20.8,3.3,-24.9,20.7,3.4,-24.6,5.73,2.42,-29.8,26.2
2013-04-04 01:23:00,0.0,1.9150,0.0008,406.58,0.29,1.8,8.4,138.13,26.66,24.63,36.32,0.04,-272.76,-272.76,-38,552,-931,20.8,3.3,-25.0,20.8,3.4,-24.7,5.73,2.42,-29.7,26.2
2013-04-04 01:24:00,0.0,1.9146,0.0011,406.47,0.26,0.9,6.6,138.13,26.67,24.63,36.33,0.04,-272.76,-272.76,-38,552,-932,20.8,3.2,-25.2,20.8,3.3,-24.8,5.73,2.43,-29.7,26.2
2013-04-04 01:25:00,0.0,1.9150,0.0009,406.44,0.28,3.4,10.2,138.13,26.67,24.63,36.33,0.04,-272.77,-272.76,-38,552,-932,20.8,3.2,-25.1,20.8,3.3,-24.8,5.73,2.42,-29.6,26.2
2013-04-04 01:26:00,0.0,1.9148,0.0010,406.49,0.25,1.7,8.3,138.13,26.68,24.63,36.32,0.04,-272.77,-272.76,-38,552,-932,20.8,3.2,-25.1,20.8,3.4,-24.7,5.73,2.43,-29.6,26.2
2013-04-04 01:27:00,0.0,1.9149,0.0010,406.62,0.22,2.6,8.4,138.13,26.68,24.63,36.32,0.04,-272.76,-272.76,-38,552,-932,20.8,3.3,-25.1,20.8,3.4,-24.7,5.73,2.43,-29.6,26.2
2013-04-04 01:28:00,0.0,1.9150,0.0012,406.37,0.28,2.5,9.6,138.13,26.69,24.62,36.33,0.04,-272.76,-272.76,-38,552,-932,20.8,3.2,-25.1,20.8,3.4,-24.7,5.73,2.43,-29.6,26.3
2013-04-04 01:29:00,0.0,1.9147,0.0009,406.55,0.26,3.4,10.2,138.13,26.69,24.63,36.32,0.04,-272.76,-272.76,-38,552,-932,20.9,3.3,-25.0,20.8,3.4,-24.7,5.73,2.43,-29.5,26.3
2013-04-04 01:30:00,0.0,1.9148,0.0009,406.52,0.28,2.6,9.1,138.13,26.69,24.62,36.32,0.04,-272.76,-272.76,-38,552,-931,20.8,3.3,-24.9,20.9,3.4,-24.5,5.73,2.43,-29.5,26.3
2013-04-04 01:31:00,0.0,1.9146,0.0010,406.54,0.30,3.5,11.4,138.13,26.70,24.63,36.32,0.04,-272.76,-272.76,-39,553,-932,20.9,3.3,-24.8,20.9,3.4,-24.5,5.73,2.43,-29.5,26.3
2013-04-04 01:32:00,0.0,1.9145,0.0008,406.57,0.28,1.1,5.7,138.13,26.71,24.63,36.32,0.04,-272.76,-272.76,-39,553,-932,20.9,3.3,-24.7,20.9,3.4,-24.4,5.73,2.42,-29.4,26.3
2013-04-04 01:33:00,0.0,1.9151,0.0011,406.53,0.23,4.3,12.6,138.13,26.71,24.62,36.32,0.04,-272.76,-272.76,-39,553,-932,20.9,3.4,-24.6,20.9,3.5,-24.3,5.73,2.42,-29.4,26.3
2013-04-04 01:34:00,0.0,1.9147,0.0009,406.52,0.24,8.7,21.4,138.13,26.72,24.63,36.33,0.04,-272.76,-272.76,-39,553,-932,20.9,3.4,-24.6,20.9,3.5,-24.2,5.73,2.42,-29.3,26.3
2013-04-04 01:35:00,0.0,1.9150,0.0009,406.51,0.24,4.3,12.8,138.13,26.73,24.63,36.33,0.04,-272.76,-272.76,-39,553,-932,20.9,3.4,-24.5,20.9,3.5,-24.2,5.73,2.42,-29.3,26.4
2013-04-04 01:36:00,0.0,1.9152,0.0009,406.50,0.30,3.9,11.7,138.13,26.73,24.63,36.33,0.04,-272.76,-272.76,-39,553,-932,20.9,3.4,-24.4,20.9,3.5,-24.1,5.73,2.42,-29.3,26.4
2013-04-04 01:37:00,0.0,1.9153,0.0009,406.57,0.27,4.4,13.0,138.13,26.74,24.62,36.32,0.04,-272.76,-272.76,-39,553,-932,20.9,3.4,-24.4,20.9,3.6,-24.0,5.73,2.42,-29.3,26.4
2013-04-04 01:38:00,0.0,1.9150,0.0009,406.63,0.30,7.4,14.1,138.13,26.75,24.63,36.32,0.04,-272.76,-272.76,-39,553,-932,20.9,3.5,-24.3,20.9,3.6,-23.9,5.73,2.42,-29.2,26.4
2013-04-04 01:39:00,0.0,1.9150,0.0009,406.50,0.24,4.4,13.5,138.13,26.76,24.63,36.33,0.04,-272.76,-272.76,-39,553,-932,21.0,3.5,-24.1,20.9,3.6,-23.9,5.73,2.42,-29.2,26.4
2013-04-04 01:40:00,0.0,1.9150,0.0010,406.61,0.30,7.5,16.0,138.13,26.77,24.63,36.32,0.04,-272.76,-272.76,-39,553,-932,21.0,3.5,-24.1,21.0,3.6,-23.7,5.73,2.42,-29.2,26.4
2013-04-04 01:41:00,0.0,1.9150,0.0009,406.54,0.28,2.7,9.8,138.13,26.77,24.63,36.32,0.04,-272.76,-272.76,-39,553,-932,21.0,3.6,-24.0,21.0,3.7,-23.6,5.73,2.42,-29.1,26.4
2013-04-04 01:42:00,0.0,1.9152,0.0010,406.57,0.30,5.9,16.9,138.13,26.78,24.63,36.32,0.04,-272.76,-272.76,-39,553,-932,21.0,3.6,-23.9,21.0,3.7,-23.5,5.73,2.42,-29.1,26.4
2013-04-04 01:43:00,0.0,1.9151,0.0007,406.51,0.23,8.6,14.8,138.13,26.78,24.63,36.33,0.04,-272.76,-272.76,-39,553,-932,21.0,3.6,-23.8,21.0,3.7,-23.5,5.73,2.42,-29.1,26.4
2013-04-04 01:44:00,0.0,1.9149,0.0008,406.43,0.25,7.5,13.8,138.13,26.79,24.63,36.33,0.04,-272.76,-272.76,-39,553,-932,21.0,3.6,-23.7,21.0,3.7,-23.4,5.73,2.42,-29.0,26.4
2013-04-04 01:45:00,0.0,1.9149,0.0010,406.46,0.29,6.4,14.1,138.13,26.80,24.63,36.33,0.04,-272.76,-272.76,-39,553,-932,21.0,3.6,-23.7,21.0,3.7,-23.4,5.73,2.42,-29.0,26.5
2013-04-04 01:46:00,0.0,1.9148,0.0010,406.41,0.31,9.5,17.7,138.13,26.80,24.63,36.33,0.04,-272.76,-272.76,-39,553,-932,21.0,3.6,-23.8,21.1,3.7,-23.5,5.73,2.41,-29.0,26.5
2013-04-04 01:47:00,0.0,1.9151,0.0009,406.46,0.26,12.1,20.0,138.13,26.81,24.63,36.33,0.04,-272.76,-272.76,-39,553,-932,21.0,3.6,-23.9,21.1,3.7,-23.5,5.73,2.41,-28.9,26.5
2013-04-04 01:48:00,0.0,1.9151,0.0008,406.45,0.32,7.8,16.8,138.13,26.82,24.63,36.33,0.04,-272.76,-272.76,-39,553,-932,21.1,3.5,-23.9,21.1,3.7,-23.6,5.73,2.42,-28.9,26.5
2013-04-04 01:49:00,0.0,1.9151,0.0009,406.50,0.26,10.9,19.1,138.13,26.82,24.63,36.33,0.04,-272.76,-272.76,-39,553,-932,21.1,3.5,-23.9,21.1,3.7,-23.6,5.73,2.42,-28.9,26.5
2013-04-04 01:50:00,0.0,1.9148,0.0009,406.45,0.27,8.6,17.6,138.13,26.83,24.63,36.33,0.04,-272.76,-272.76,-39,553,-932,21.1,3.5,-23.9,21.1,3.7,-23.6,5.73,2.42,-28.9,26.5
2013-04-04 01:51:00,0.0,1.9150,0.0008,406.52,0.25,5.2,13.7,138.13,26.84,24.63,36.33,0.04,-272.76,-272.76,-39,553,-932,21.1,3.5,-23.9,21.1,3.7,-23.6,5.73,2.42,-28.8,26.5
2013-04-04 01:52:00,0.0,1.9148,0.0009,406.50,0.20,6.1,14.1,138.13,26.85,24.63,36.32,0.04,-272.76,-272.76,-39,554,-932,21.1,3.5,-24.0,21.1,3.6,-23.7,5.73,2.42,-28.7,26.5
2013-04-04 01:53:00,0.0,1.9143,0.0009,406.42,0.24,8.4,14.4,138.13,26.86,24.63,36.33,0.04,-272.76,-272.76,-39,554,-932,21.1,3.5,-24.1,21.1,3.6,-23.7,5.73,2.42,-28.7,26.5
2013-04-04 01:54:00,0.0,1.9146,0.0009,406.48,0.25,9.3,17.6,138.13,26.86,24.63,36.33,0.04,-272.76,-272.76,-39,554,-932,21.1,3.5,-24.1,21.1,3.6,-23.7,5.73,2.41,-28.7,26.6
2013-04-04 01:55:00,0.0,1.9145,0.0008,406.51,0.31,9.6,18.8,138.12,26.87,24.63,36.33,0.04,-272.76,-272.76,-39,554,-932,21.2,3.5,-24.1,21.1,3.6,-23.8,5.73,2.41,-28.7,26.6
2013-04-04 01:56:00,0.0,1.9146,0.0009,406.50,0.29,8.8,19.9,138.12,26.88,24.63,36.33,0.04,-272.76,-272.76,-39,554,-932,21.2,3.5,-24.1,21.2,3.6,-23.8,5.73,2.42,-28.6,26.6
2013-04-04 01:57:00,0.0,1.9148,0.0009,406.45,0.27,10.4,19.2,138.12,26.89,24.63,36.33,0.04,-272.76,-272.76,-39,554,-932,21.2,3.5,-24.1,21.2,3.6,-23.8,5.73,2.42,-28.6,26.6
2013-04-04 01:58:00,0.0,1.9148,0.0009,406.44,0.29,11.1,16.9,138.12,26.90,24.63,36.33,0.04,-272.76,-272.76,-39,554,-932,21.2,3.4,-24.2,21.2,3.5,-23.9,5.73,2.42,-28.5,26.6
2013-04-04 01:59:00,0.0,1.9144,0.0009,406.40,0.28,10.5,15.2,138.12,26.90,24.63,36.33,0.04,-272.75,-272.76,-39,554,-932,21.2,3.4,-24.3,21.2,3.5,-23.9,5.73,2.41,-28.5,26.6
2013-04-04 02:00:00,0.0,1.9143,0.0008,406.38,0.32,13.6,18.2,138.12,26.91,24.63,36.33,0.04,-272.76,-272.77,-39,554,-932,21.2,3.4,-24.2,21.2,3.5,-23.9,5.73,2.42,-28.5,26.6
2013-04-04 02:01:00,0.0,1.9145,0.0009,406.41,0.26,11.9,16.2,138.12,26.92,24.63,36.33,0.04,-272.76,-272.76,-39,554,-932,21.2,3.4,-24.2,21.3,3.5,-23.9,5.73,2.42,-28.5,26.7
2013-04-04 02:02:00,0.0,1.9147,0.0009,406.42,0.29,12.3,20.1,138.12,26.93,24.63,36.34,0.04,-272.76,-272.76,-39,554,-932,21.3,3.4,-24.2,21.3,3.5,-23.9,5.73,2.42,-28.4,26.7
2013-04-04 02:03:00,0.0,1.9145,0.0009,406.44,0.24,18.1,24.3,138.12,26.94,24.63,36.34,0.04,-272.76,-272.76,-39,554,-933,21.3,3.4,-24.2,21.3,3.5,-23.9,5.73,2.42,-28.4,26.7
2013-04-04 02:04:00,0.0,1.9147,0.0010,406.41,0.27,16.4,21.0,138.12,26.94,24.63,36.33,0.04,-272.76,-272.75,-39,554,-932,21.3,3.4,-24.2,21.3,3.5,-23.9,5.73,2.42,-28.3,26.7
2013-04-04 02:05:00,0.0,1.9143,0.0009,406.39,0.28,15.8,21.8,138.12,26.95,24.63,36.33,0.04,-272.76,-272.76,-39,554,-933,21.3,3.4,-24.2,21.3,3.5,-23.8,5.73,2.42,-28.3,26.7
2013-04-04 02:06:00,0.0,1.9145,0.0007,406.41,0.31,20.8,25.9,138.12,26.96,24.63,36.33,0.04,-272.76,-272.76,-39,554,-933,21.3,3.4,-24.2,21.3,3.5,-23.9,5.73,2.41,-28.3,26.7
2013-04-04 02:07:00,0.0,1.9143,0.0010,406.41,0.27,14.1,17.8,138.12,26.97,24.63,36.33,0.04,-272.75,-272.76,-39,554,-933,21.4,3.4,-24.1,21.3,3.5,-23.8,5.73,2.42,-28.2,26.7
2013-04-04 02:08:00,0.0,1.9143,0.0007,406.41,0.30,18.7,21.0,138.12,26.98,24.63,36.33,0.04,-272.76,-272.76,-39,554,-932,21.4,3.5,-24.0,21.3,3.6,-23.7,5.73,2.42,-28.2,26.8
2013-04-04 02:09:00,0.0,1.9144,0.0007,406.41,0.26,19.5,21.8,138.12,26.99,24.63,36.34,0.04,-272.76,-272.76,-39,554,-933,21.4,3.5,-23.9,21.4,3.6,-23.6,5.73,2.42,-28.2,26.8
2013-04-04 02:10:00,0.0,1.9151,0.0009,406.42,0.29,29.5,29.0,138.12,27.00,24.63,36.34,0.04,-272.76,-272.76,-39,554,-933,21.4,3.5,-23.9,21.4,3.6,-23.6,5.73,2.41,-28.2,26.8
2013-04-04 02:11:00,0.0,1.9148,0.0008,406.42,0.29,27.8,29.1,138.12,27.01,24.63,36.33,0.04,-272.76,-272.75,-39,555,-933,21.4,3.5,-24.0,21.4,3.6,-23.6,5.73,2.41,-28.1,26.8
2013-04-04 02:12:00,0.0,1.9144,0.0008,406.41,0.23,27.7,27.7,138.12,27.02,24.63,36.34,0.04,-272.74,-272.75,-39,554,-932,21.4,3.4,-24.0,21.4,3.6,-23.7,5.73,2.42,-28.1,26.8
2013-04-04 02:13:00,0.0,1.9144,0.0009,406.43,0.25,27.5,26.7,138.12,27.03,24.63,36.33,0.04,-272.76,-272.76,-39,555,-932,21.4,3.5,-24.0,21.4,3.6,-23.6,5.73,2.41,-28.0,26.8
2013-04-04 02:14:00,0.0,1.9147,0.0010,406.31,0.28,22.3,25.2,138.12,27.04,24.63,36.34,0.04,-272.76,-272.76,-39,555,-933,21.4,3.5,-23.9,21.5,3.6,-23.6,5.73,2.42,-28.0,26.8
2013-04-04 02:15:00,0.0,1.9144,0.0008,406.36,0.25,38.6,27.0,138.12,27.05,24.63,36.34,0.04,-272.75,-272.76,-39,555,-933,21.4,3.5,-23.9,21.5,3.6,-23.5,5.73,2.42,-27.9,26.9
2013-04-04 02:16:00,0.0,1.9147,0.0008,406.44,0.27,36.4,26.9,138.12,27.06,24.63,36.33,0.04,-272.76,-272.76,-39,555,-933,21.5,3.5,-23.8,21.5,3.6,-23.4,5.73,2.41,-28.0,26.9
2013-04-04 02:17:00,0.0,1.9146,0.0010,406.34,0.29,30.5,25.9,138.12,27.07,24.63,36.33,0.04,-272.76,-272.76,-39,555,-933,21.5,3.5,-23.7,21.5,3.6,-23.4,5.73,2.41,-27.9,26.9
2013-04-04 02:18:00,0.0,1.9146,0.0008,406.38,0.29,36.1,34.6,138.12,27.08,24.63,36.34,0.04,-272.76,-272.76,-39,555,-933,21.5,3.5,-23.7,21.5,3.6,-23.4,5.73,2.41,-27.9,26.9